Time,TemperatureF,DewpointF,PressureIn,WindDirection,WindDirectionDegrees,WindSpeedMPH,WindSpeedGustMPH,Humidity,HourlyPrecipIn,Conditions,Clouds,dailyrainin,SoftwareType,DateUTC
2013-02-28 00:02:00,41.6,41.0,30.30,ENE,72,0.0,1.0,97,0.00,,,0.00,weatherlink.com 1.10,2013-02-28 08:02:00,
2013-02-28 00:18:00,41.6,41.0,30.30,ENE,72,0.0,1.0,97,0.00,,,0.00,weatherlink.com 1.10,2013-02-28 08:18:00,
2013-02-28 00:33:00,41.8,41.0,30.31,ENE,72,0.0,0.0,97,0.00,,,0.00,weatherlink.com 1.10,2013-02-28 08:33:00,
2013-02-28 00:48:00,41.8,41.0,30.31,ENE,72,0.0,0.0,97,0.00,,,0.00,weatherlink.com 1.10,2013-02-28 08:48:00,
2013-02-28 01:03:00,41.8,41.0,30.30,ENE,72,1.0,1.0,97,0.00,,,0.00,weatherlink.com 1.10,2013-02-28 09:03:00,
2013-02-28 01:18:00,41.8,41.0,30.30,ENE,72,0.0,0.0,97,0.00,,,0.00,weatherlink.com 1.10,2013-02-28 09:18:00,
2013-02-28 01:33:00,41.8,41.0,30.29,ENE,72,0.0,0.0,97,0.00,,,0.00,weatherlink.com 1.10,2013-02-28 09:33:00,
2013-02-28 01:48:00,41.9,41.0,30.30,ENE,72,0.0,0.0,97,0.00,,,0.00,weatherlink.com 1.10,2013-02-28 09:48:00,
2013-02-28 02:03:00,41.7,41.0,30.30,ENE,72,0.0,0.0,97,0.00,,,0.00,weatherlink.com 1.10,2013-02-28 10:03:00,
2013-02-28 02:18:00,41.7,41.0,30.30,ENE,72,0.0,0.0,97,0.00,,,0.00,weatherlink.com 1.10,2013-02-28 10:18:00,
2013-02-28 02:33:00,41.6,41.0,30.29,ENE,72,0.0,0.0,97,0.00,,,0.00,weatherlink.com 1.10,2013-02-28 10:33:00,
2013-02-28 02:48:00,41.5,41.0,30.29,ENE,72,0.0,0.0,97,0.00,,,0.00,weatherlink.com 1.10,2013-02-28 10:48:00,
2013-02-28 03:03:00,41.4,41.0,30.29,ENE,72,0.0,0.0,97,0.00,,,0.00,weatherlink.com 1.10,2013-02-28 11:03:00,
2013-02-28 03:19:00,41.3,41.0,30.29,ENE,72,0.0,0.0,97,0.00,,,0.00,weatherlink.com 1.10,2013-02-28 11:19:00,
2013-02-28 03:34:00,41.2,40.0,30.29,ENE,72,0.0,36.0,97,0.00,,,0.00,weatherlink.com 1.10,2013-02-28 11:34:00,
2013-02-28 03:48:00,41.3,41.0,30.29,ENE,72,0.0,2.0,97,0.00,,,0.00,weatherlink.com 1.10,2013-02-28 11:48:00,
2013-02-28 04:03:00,41.3,41.0,30.29,ENE,72,0.0,1.0,97,0.00,,,0.00,weatherlink.com 1.10,2013-02-28 12:03:00,
2013-02-28 04:18:00,41.2,41.0,30.29,ENE,72,0.0,0.0,98,0.00,,,0.00,weatherlink.com 1.10,2013-02-28 12:18:00,
2013-02-28 04:33:00,41.2,41.0,30.29,ENE,72,0.0,0.0,98,0.00,,,0.00,weatherlink.com 1.10,2013-02-28 12:33:00,
2013-02-28 04:48:00,41.2,41.0,30.29,ENE,72,0.0,0.0,98,0.00,,,0.00,weatherlink.com 1.10,2013-02-28 12:48:00,
2013-02-28 05:03:00,41.3,41.0,30.29,ENE,72,0.0,0.0,98,0.00,,,0.00,weatherlink.com 1.10,2013-02-28 13:03:00,
2013-02-28 05:18:00,41.3,41.0,30.30,ENE,72,0.0,0.0,98,0.00,,,0.00,weatherlink.com 1.10,2013-02-28 13:18:00,
2013-02-28 05:33:00,41.3,41.0,30.30,ENE,72,0.0,57.0,98,0.00,,,0.00,weatherlink.com 1.10,2013-02-28 13:33:00,
2013-02-28 05:48:00,41.3,41.0,30.30,ENE,72,0.0,0.0,98,0.00,,,0.00,weatherlink.com 1.10,2013-02-28 13:48:00,
2013-02-28 06:03:00,41.3,41.0,30.31,ENE,72,0.0,0.0,98,0.00,,,0.00,weatherlink.com 1.10,2013-02-28 14:03:00,
2013-02-28 06:19:00,41.3,41.0,30.30,ENE,72,0.0,0.0,98,0.00,,,0.00,weatherlink.com 1.10,2013-02-28 14:19:00,
2013-02-28 06:33:00,41.2,41.0,30.31,ENE,72,0.0,0.0,98,0.00,,,0.00,weatherlink.com 1.10,2013-02-28 14:33:00,
2013-02-28 06:48:00,41.2,41.0,30.31,ENE,72,0.0,1.0,98,0.00,,,0.00,weatherlink.com 1.10,2013-02-28 14:48:00,
2013-02-28 07:03:00,41.3,41.0,30.31,ENE,72,0.0,1.0,98,0.00,,,0.00,weatherlink.com 1.10,2013-02-28 15:03:00,
2013-02-28 07:18:00,41.3,41.0,30.32,ENE,72,0.0,0.0,98,0.00,,,0.00,weatherlink.com 1.10,2013-02-28 15:18:00,
2013-02-28 07:35:00,41.4,41.0,30.33,ENE,72,0.0,0.0,98,0.00,,,0.00,weatherlink.com 1.10,2013-02-28 15:35:00,
2013-02-28 07:49:00,41.6,41.0,30.34,ENE,72,0.0,1.0,98,0.00,,,0.00,weatherlink.com 1.10,2013-02-28 15:49:00,
2013-02-28 08:04:00,41.7,42.0,30.33,ENE,72,0.0,1.0,99,0.00,,,0.00,weatherlink.com 1.10,2013-02-28 16:04:00,
2013-02-28 08:19:00,42.0,42.0,30.33,ENE,72,0.0,0.0,99,0.00,,,0.00,weatherlink.com 1.10,2013-02-28 16:19:00,
2013-02-28 08:35:00,42.3,42.0,30.33,ENE,72,0.0,0.0,99,0.00,,,0.00,weatherlink.com 1.10,2013-02-28 16:35:00,
2013-02-28 08:49:00,42.6,42.0,30.34,ENE,72,0.0,0.0,99,0.00,,,0.00,weatherlink.com 1.10,2013-02-28 16:49:00,
2013-02-28 09:04:00,42.8,43.0,30.34,ENE,72,0.0,0.0,99,0.00,,,0.00,weatherlink.com 1.10,2013-02-28 17:04:00,
2013-02-28 09:20:00,42.9,43.0,30.34,ENE,72,0.0,0.0,99,0.00,,,0.00,weatherlink.com 1.10,2013-02-28 17:20:00,
2013-02-28 09:34:00,43.2,43.0,30.34,ENE,72,0.0,0.0,99,0.00,,,0.00,weatherlink.com 1.10,2013-02-28 17:34:00,
2013-02-28 09:49:00,43.6,43.0,30.34,ENE,72,0.0,1.0,99,0.00,,,0.00,weatherlink.com 1.10,2013-02-28 17:49:00,
2013-02-28 10:04:00,43.9,44.0,30.35,ENE,72,0.0,1.0,99,0.00,,,0.00,weatherlink.com 1.10,2013-02-28 18:04:00,
2013-02-28 10:19:00,44.3,44.0,30.35,ENE,72,0.0,1.0,99,0.00,,,0.00,weatherlink.com 1.10,2013-02-28 18:19:00,
2013-02-28 10:34:00,45.0,45.0,30.35,ENE,72,0.0,1.0,99,0.00,,,0.00,weatherlink.com 1.10,2013-02-28 18:34:00,
2013-02-28 10:49:00,45.2,45.0,30.35,East,81,1.0,1.0,98,0.00,,,0.00,weatherlink.com 1.10,2013-02-28 18:49:00,
2013-02-28 11:04:00,45.4,45.0,30.35,East,81,0.0,1.0,98,0.00,,,0.00,weatherlink.com 1.10,2013-02-28 19:04:00,
2013-02-28 11:19:00,45.7,45.0,30.35,East,81,0.0,1.0,98,0.00,,,0.00,weatherlink.com 1.10,2013-02-28 19:19:00,
2013-02-28 11:34:00,45.5,45.0,30.35,East,82,0.0,13.0,97,0.00,,,0.00,weatherlink.com 1.10,2013-02-28 19:34:00,
2013-02-28 11:49:00,45.6,45.0,30.35,East,82,0.0,1.0,98,0.00,,,0.00,weatherlink.com 1.10,2013-02-28 19:49:00,
2013-02-28 12:04:00,45.7,45.0,30.35,East,82,0.0,1.0,98,0.00,,,0.00,weatherlink.com 1.10,2013-02-28 20:04:00,
2013-02-28 12:19:00,46.0,46.0,30.35,East,82,0.0,1.0,98,0.00,,,0.00,weatherlink.com 1.10,2013-02-28 20:19:00,
2013-02-28 12:34:00,46.1,46.0,30.35,East,81,0.0,1.0,98,0.00,,,0.00,weatherlink.com 1.10,2013-02-28 20:34:00,
2013-02-28 12:49:00,46.4,46.0,30.34,East,81,1.0,2.0,98,0.00,,,0.00,weatherlink.com 1.10,2013-02-28 20:49:00,
2013-02-28 13:04:00,47.6,47.0,30.34,East,81,0.0,97.0,99,0.00,,,0.00,weatherlink.com 1.10,2013-02-28 21:04:00,
2013-02-28 13:19:00,47.9,47.0,30.34,East,86,1.0,2.0,98,0.00,,,0.00,weatherlink.com 1.10,2013-02-28 21:19:00,
2013-02-28 13:35:00,48.3,48.0,30.34,East,89,1.0,2.0,97,0.00,,,0.00,weatherlink.com 1.10,2013-02-28 21:35:00,
2013-02-28 13:50:00,48.6,48.0,30.34,East,89,0.0,1.0,96,0.00,,,0.00,weatherlink.com 1.10,2013-02-28 21:50:00,
2013-02-28 14:05:00,49.1,48.0,30.33,East,89,0.0,1.0,95,0.00,,,0.00,weatherlink.com 1.10,2013-02-28 22:05:00,
2013-02-28 14:20:00,49.6,48.0,30.33,ENE,67,0.0,2.0,95,0.00,,,0.00,weatherlink.com 1.10,2013-02-28 22:20:00,
2013-02-28 14:36:00,49.8,48.0,30.34,ENE,65,0.0,1.0,94,0.00,,,0.00,weatherlink.com 1.10,2013-02-28 22:36:00,
2013-02-28 14:51:00,49.7,48.0,30.34,ENE,67,0.0,1.0,95,0.00,,,0.00,weatherlink.com 1.10,2013-02-28 22:51:00,
2013-02-28 15:05:00,49.7,48.0,30.34,ENE,66,0.0,0.0,95,0.00,,,0.00,weatherlink.com 1.10,2013-02-28 23:05:00,
2013-02-28 15:20:00,49.3,48.0,30.34,ENE,67,2.0,113.0,96,0.00,,,0.00,weatherlink.com 1.10,2013-02-28 23:20:00,
2013-02-28 15:35:00,49.1,48.0,30.35,ENE,78,0.0,1.0,96,0.00,,,0.00,weatherlink.com 1.10,2013-02-28 23:35:00,
2013-02-28 15:50:00,48.9,48.0,30.36,ENE,78,0.0,1.0,97,0.00,,,0.00,weatherlink.com 1.10,2013-02-28 23:50:00,
2013-02-28 16:06:00,48.8,48.0,30.36,ENE,76,0.0,1.0,97,0.00,,,0.00,weatherlink.com 1.10,2013-03-01 00:06:00,
2013-02-28 16:20:00,48.8,48.0,30.36,ENE,78,0.0,1.0,97,0.00,,,0.00,weatherlink.com 1.10,2013-03-01 00:20:00,
2013-02-28 16:35:00,48.8,48.0,30.36,ENE,77,0.0,1.0,97,0.00,,,0.00,weatherlink.com 1.10,2013-03-01 00:35:00,
2013-02-28 16:51:00,48.6,48.0,30.36,ENE,76,0.0,0.0,98,0.00,,,0.00,weatherlink.com 1.10,2013-03-01 00:51:00,
2013-02-28 17:05:00,48.7,48.0,30.37,ENE,76,0.0,0.0,98,0.00,,,0.00,weatherlink.com 1.10,2013-03-01 01:05:00,
2013-02-28 17:20:00,48.7,48.0,30.37,ENE,76,0.0,0.0,98,0.00,,,0.00,weatherlink.com 1.10,2013-03-01 01:20:00,
2013-02-28 17:35:00,48.6,48.0,30.37,ENE,77,0.0,0.0,98,0.00,,,0.00,weatherlink.com 1.10,2013-03-01 01:35:00,
2013-02-28 17:50:00,48.5,48.0,30.37,ENE,78,0.0,0.0,98,0.00,,,0.00,weatherlink.com 1.10,2013-03-01 01:50:00,
2013-02-28 18:06:00,48.3,48.0,30.38,ENE,78,0.0,1.0,98,0.00,,,0.00,weatherlink.com 1.10,2013-03-01 02:06:00,
2013-02-28 18:20:00,48.1,48.0,30.38,ENE,78,0.0,0.0,98,0.00,,,0.00,weatherlink.com 1.10,2013-03-01 02:20:00,
2013-02-28 18:36:00,47.9,47.0,30.38,ENE,78,0.0,0.0,98,0.00,,,0.00,weatherlink.com 1.10,2013-03-01 02:36:00,
2013-02-28 18:50:00,47.6,47.0,30.38,ENE,78,0.0,1.0,98,0.00,,,0.00,weatherlink.com 1.10,2013-03-01 02:50:00,
2013-02-28 19:05:00,47.4,47.0,30.38,ENE,78,0.0,0.0,98,0.00,,,0.00,weatherlink.com 1.10,2013-03-01 03:05:00,
2013-02-28 19:20:00,47.2,47.0,30.39,ENE,78,0.0,0.0,99,0.00,,,0.00,weatherlink.com 1.10,2013-03-01 03:20:00,
2013-02-28 19:36:00,47.0,47.0,30.39,ENE,78,0.0,1.0,98,0.00,,,0.00,weatherlink.com 1.10,2013-03-01 03:36:00,
2013-02-28 19:50:00,46.9,47.0,30.40,ENE,78,0.0,0.0,99,0.00,,,0.00,weatherlink.com 1.10,2013-03-01 03:50:00,
2013-02-28 20:07:00,46.9,47.0,30.41,ENE,78,0.0,1.0,99,0.00,,,0.00,weatherlink.com 1.10,2013-03-01 04:07:00,
2013-02-28 20:20:00,47.0,47.0,30.41,ENE,78,0.0,1.0,99,0.00,,,0.00,weatherlink.com 1.10,2013-03-01 04:20:00,
2013-02-28 20:35:00,47.4,47.0,30.41,ENE,78,0.0,1.0,99,0.00,,,0.00,weatherlink.com 1.10,2013-03-01 04:35:00,
2013-02-28 20:50:00,47.9,48.0,30.41,ENE,78,0.0,0.0,99,0.00,,,0.00,weatherlink.com 1.10,2013-03-01 04:50:00,
2013-02-28 21:05:00,47.9,48.0,30.41,East,85,0.0,1.0,99,0.00,,,0.00,weatherlink.com 1.10,2013-03-01 05:05:00,
2013-02-28 21:21:00,47.9,48.0,30.41,ENE,75,0.0,2.0,99,0.00,,,0.00,weatherlink.com 1.10,2013-03-01 05:21:00,
2013-02-28 21:36:00,48.3,48.0,30.42,ENE,77,0.0,3.0,99,0.00,,,0.00,weatherlink.com 1.10,2013-03-01 05:36:00,
2013-02-28 21:52:00,48.1,48.0,30.42,ENE,71,0.0,1.0,99,0.00,,,0.00,weatherlink.com 1.10,2013-03-01 05:52:00,
2013-02-28 22:06:00,47.7,48.0,30.42,ENE,71,0.0,1.0,99,0.00,,,0.00,weatherlink.com 1.10,2013-03-01 06:06:00,
2013-02-28 22:21:00,47.7,48.0,30.43,ENE,68,0.0,2.0,99,0.00,,,0.00,weatherlink.com 1.10,2013-03-01 06:21:00,
2013-02-28 22:35:00,47.7,48.0,30.43,ESE,102,0.0,2.0,99,0.00,,,0.00,weatherlink.com 1.10,2013-03-01 06:35:00,
2013-02-28 22:51:00,47.7,48.0,30.43,NE,37,0.0,3.0,99,0.00,,,0.00,weatherlink.com 1.10,2013-03-01 06:51:00,
2013-02-28 23:07:00,47.9,48.0,30.43,SW,215,0.0,2.0,99,0.00,,,0.00,weatherlink.com 1.10,2013-03-01 07:07:00,
2013-02-28 23:21:00,47.6,47.0,30.43,SE,136,0.0,3.0,99,0.00,,,0.00,weatherlink.com 1.10,2013-03-01 07:21:00,
2013-02-28 23:36:00,47.5,47.0,30.45,ENE,66,2.0,2.0,99,0.00,,,0.00,weatherlink.com 1.10,2013-03-01 07:36:00,
2013-02-28 23:51:00,47.7,48.0,30.44,NE,34,0.0,1.0,99,0.00,,,0.00,weatherlink.com 1.10,2013-03-01 07:51:00,